Wellsville, NY

4:18 AM EDT on October 23, 2019 (GMT -0400)
Wellsville Municipal-Tarantine

Weather History for KELZ - August, 2019

Change the Weather History Date:

Wednesday, August 21, 2019

  Actual Average (WUND) Record (WUND)
Temperature  
Mean Temperature 72 °F -  
Max Temperature 79 °F - - (-1)
Min Temperature 64 °F - - (-1)
Cooling Degree Days 6    
Growing Degree Days 22 (Base 50)    
Moisture  
Dew Point 65 °F    
Average Humidity 88    
Maximum Humidity 100    
Minimum Humidity 64    
Precipitation  
Precipitation 0.65 in - - ()
Sea Level Pressure  
Sea Level Pressure 29.96 in    
Wind  
Wind Speed 6 mph ()    
Max Wind Speed 21 mph    
Max Gust Speed 26 mph    
Visibility 7.9 miles    
Events Rain , Thunderstorm    
Averages and records for this station are not official NWS values.
T = Trace of Precipitation, MM = Missing Value Source: Averaged Metar Reports

Daily Weather History Graph

Daily Weather History Graph

Search for Another Location

Airport or City:

Astronomy

Aug. 21, 2019 Rise Set
Actual Time 6:25 AM EDT 8:03 PM EDT
Civil Twilight 5:56 AM EDT 8:33 PM EDT
Nautical Twilight 5:20 AM EDT 9:09 PM EDT
Astronomical Twilight 4:41 AM EDT 9:47 PM EDT
Moon 11:14 PM EDT (8/21) 12:05 PM EDT (8/21)
Length of Visible Light 14h 37m
Length of Day
13h 38m
Waning Gibbous, 69% of the Moon is Illuminated
Aug 21
Waning Gibbous
Aug 23
Last Quarter
Aug 30
New
Sep 5
First Quarter
Sep 14
Full

Hourly Weather History & Observations

Time (EDT) Temp. Dew Point Humidity Pressure Visibility Wind Dir Wind Speed Gust Speed Precip Events Conditions
12:56 AM 70.0 °F 66.0 °F 87% 30.01 in 10.0 mi SSE 4.6 mph - N/A   Clear
1:56 AM 71.1 °F 66.0 °F 84% 29.99 in 10.0 mi Variable 6.9 mph - N/A   Clear
2:18 AM 70.0 °F 64.9 °F 84% 30.03 in 2.5 mi South 9.2 mph 21.9 mph 0.10 in Rain Rain
2:26 AM 70.0 °F 66.0 °F 87% 30.02 in 10.0 mi SW 5.8 mph - 0.10 in Rain Light Rain
2:56 AM 69.1 °F 66.0 °F 90% 29.97 in 10.0 mi SSW 6.9 mph - 0.10 in   Partly Cloudy
3:56 AM 68.0 °F 66.0 °F 93% 29.95 in 10.0 mi South 4.6 mph - N/A   Mostly Cloudy
4:56 AM 68.0 °F 64.9 °F 90% 29.95 in 10.0 mi WSW 8.1 mph - N/A   Mostly Cloudy
5:56 AM 66.0 °F 64.0 °F 93% 29.96 in 5.0 mi West 5.8 mph - 0.06 in Rain , Thunderstorm Light Rain
6:08 AM 66.0 °F 64.9 °F 96% 30.00 in 1.5 mi Variable 3.5 mph - 0.08 in Rain Heavy Rain
6:14 AM 64.9 °F 64.9 °F 100% 30.00 in 0.8 mi South 5.8 mph - 0.16 in Rain Heavy Rain
6:24 AM 64.9 °F 64.9 °F 100% 29.98 in 1.5 mi Calm Calm - 0.23 in Rain Light Rain
6:28 AM 64.9 °F 64.9 °F 100% 29.99 in 3.0 mi SW 3.5 mph - 0.24 in Rain Light Rain
6:48 AM 66.0 °F 64.9 °F 96% 30.00 in 8.0 mi SW 4.6 mph - 0.24 in Rain Light Rain
6:56 AM 66.0 °F 64.9 °F 96% 29.96 in 9.0 mi SSW 4.6 mph - 0.24 in Rain Light Rain
7:46 AM 66.0 °F 64.9 °F 96% 29.99 in 9.0 mi SW 5.8 mph - 0.01 in Rain Light Rain
7:53 AM 66.2 °F 64.4 °F 94% 29.99 in 10.0 mi West 4.6 mph - 0.01 in Rain Light Rain
7:56 AM 66.0 °F 64.9 °F 96% 29.95 in 10.0 mi Variable 4.6 mph - 0.01 in   Mostly Cloudy
8:19 AM 66.9 °F 64.9 °F 93% 29.99 in 10.0 mi West 4.6 mph - N/A   Overcast
8:40 AM 66.9 °F 66.0 °F 97% 29.99 in 8.0 mi WSW 3.5 mph - 0.00 in Rain Light Rain
8:56 AM 66.9 °F 66.0 °F 97% 29.96 in 10.0 mi West 6.9 mph - 0.00 in   Overcast
9:56 AM 68.0 °F 66.0 °F 93% 29.96 in 10.0 mi WSW 5.8 mph - 0.00 in   Mostly Cloudy
10:01 AM 68.0 °F 66.0 °F 93% 29.99 in 10.0 mi WSW 4.6 mph - N/A   Scattered Clouds
10:42 AM 71.1 °F 66.0 °F 84% 29.99 in 10.0 mi West 6.9 mph - N/A   Mostly Cloudy
10:56 AM 71.1 °F 64.9 °F 81% 29.95 in 10.0 mi WSW 9.2 mph - N/A   Overcast
11:51 AM 71.6 °F 66.2 °F 83% 29.97 in 10.0 mi WSW 8.1 mph - N/A   Scattered Clouds
11:56 AM 73.0 °F 66.0 °F 79% 29.94 in 10.0 mi WSW 8.1 mph - N/A   Scattered Clouds
12:56 PM 75.9 °F 66.0 °F 71% 29.94 in 10.0 mi SW 9.2 mph - N/A   Partly Cloudy
1:56 PM 78.1 °F 66.9 °F 68% 29.93 in 10.0 mi West 9.2 mph - N/A   Partly Cloudy
2:56 PM 78.1 °F 66.0 °F 66% 29.93 in 10.0 mi West 9.2 mph - N/A   Scattered Clouds
3:56 PM 79.0 °F 66.0 °F 64% 29.91 in 10.0 mi WSW 10.4 mph - N/A   Partly Cloudy
4:56 PM 78.1 °F 64.9 °F 64% 29.90 in 10.0 mi West 10.4 mph - N/A   Clear
5:56 PM 77.0 °F 64.9 °F 66% 29.91 in 10.0 mi West 6.9 mph - N/A   Clear
6:56 PM 73.9 °F 66.0 °F 76% 29.91 in 10.0 mi SW 4.6 mph - N/A   Scattered Clouds
7:39 PM 69.1 °F 64.9 °F 87% 29.96 in 2.5 mi WNW 20.7 mph 26.5 mph 0.05 in Rain Rain
7:42 PM 66.9 °F 64.9 °F 93% 29.96 in 0.8 mi WNW 12.7 mph 26.5 mph 0.13 in Rain Heavy Rain
7:53 PM 66.2 °F 64.4 °F 94% 29.95 in 0.8 mi NW 8.1 mph - 0.24 in Rain Light Rain
7:56 PM 66.9 °F 64.0 °F 90% 29.93 in 2.0 mi WNW 6.9 mph - 0.24 in Rain Light Rain
8:03 PM 66.9 °F 64.9 °F 93% 29.95 in 10.0 mi West 5.8 mph - 0.00 in   Overcast
8:56 PM 64.9 °F 64.9 °F 100% 29.94 in 10.0 mi NW 3.5 mph - 0.00 in   Mostly Cloudy
9:56 PM 66.0 °F 64.9 °F 96% 29.95 in 10.0 mi SW 5.8 mph - N/A   Scattered Clouds
10:56 PM 66.0 °F 64.9 °F 96% 29.93 in 8.0 mi SSW 4.6 mph - N/A   Clear
11:56 PM 64.9 °F 64.9 °F 100% 29.94 in 9.0 mi SW 4.6 mph - N/A   Clear